When you browse on this site, cookies collect data to enhance your experience and personalize the content and advertising you see.
Visit our Privacy Policy to learn more. By continuing to use the site, you agree to this use of cookies and data.
EN

Hourly Weather Marinka

Today, 6 July, Monday

Time Temperature Precipitation Wind Pressure Humidity
00:00 +27°C° 0 mm 1 mps 742 mmHg 51%
01:00 +27°C° 0 mm 1 mps 742 mmHg 52%
02:00 +24°C° 0 mm 0 mps 742 mmHg 53%
03:00 +24°C° 0 mm 0 mps 742 mmHg 54%
04:00 +26°C° 0 mm 1 mps 742 mmHg 55%
05:00 +26°C° 0 mm 1 mps 742 mmHg 56%
06:00 +26°C° 0 mm 2 mps 742 mmHg 57%
07:00 +28°C° 0 mm 2 mps 742 mmHg 52%
08:00 +30°C° 0 mm 2 mps 742 mmHg 46%
09:00 +34°C° 0 mm 3 mps 742 mmHg 40%
10:00 +35°C° 0 mm 3 mps 742 mmHg 36%
11:00 +36°C° 0 mm 3 mps 742 mmHg 31%
12:00 +38°C° 0 mm 3 mps 742 mmHg 27%
13:00 +38°C° 0 mm 3 mps 742 mmHg 25%
14:00 +38°C° 0 mm 3 mps 741 mmHg 24%
15:00 +39°C° 0 mm 2 mps 741 mmHg 22%
16:00 +39°C° 0 mm 2 mps 741 mmHg 25%
17:00 +38°C° 0 mm 2 mps 740 mmHg 27%
18:00 +37°C° 0 mm 2 mps 740 mmHg 30%
19:00 +35°C° 0 mm 3 mps 740 mmHg 32%
20:00 +33°C° 0 mm 3 mps 740 mmHg 34%
21:00 +30°C° 0 mm 3 mps 740 mmHg 36%
22:00 +29°C° 0 mm 3 mps 740 mmHg 35%
23:00 +29°C° 0 mm 3 mps 740 mmHg 35%

Tomorrow, 7 July, Tuesday

Time Temperature Precipitation Wind Pressure Humidity
00:00 +28°C° 0 mm 2 mps 740 mmHg 34%
01:00 +27°C° 0 mm 2 mps 739 mmHg 34%
02:00 +27°C° 0 mm 2 mps 739 mmHg 34%
03:00 +26°C° 0 mm 1 mps 739 mmHg 35%
04:00 +26°C° 0 mm 1 mps 739 mmHg 37%
05:00 +26°C° 0 mm 1 mps 739 mmHg 39%
06:00 +26°C° 0 mm 1 mps 739 mmHg 41%
07:00 +27°C° 0 mm 2 mps 739 mmHg 39%
08:00 +29°C° 0 mm 2 mps 739 mmHg 37%
09:00 +31°C° 0 mm 2 mps 739 mmHg 35%
10:00 +34°C° 0 mm 2 mps 739 mmHg 32%
11:00 +35°C° 0 mm 2 mps 739 mmHg 29%
12:00 +37°C° 0 mm 3 mps 739 mmHg 27%
13:00 +37°C° 0 mm 3 mps 739 mmHg 26%
14:00 +38°C° 0 mm 3 mps 739 mmHg 24%
15:00 +38°C° 0 mm 3 mps 739 mmHg 23%
16:00 +38°C° 0 mm 3 mps 738 mmHg 26%
17:00 +37°C° 0 mm 3 mps 738 mmHg 30%
18:00 +36°C° 0 mm 3 mps 738 mmHg 33%
19:00 +34°C° 0.2 mm 2 mps 738 mmHg 38%
20:00 +31°C° 0.2 mm 2 mps 738 mmHg 42%
21:00 +28°C° 0.2 mm 1 mps 738 mmHg 47%
22:00 +28°C° 0.1 mm 2 mps 738 mmHg 48%
23:00 +28°C° 0.1 mm 2 mps 738 mmHg 49%

Day after tomorrow, 8 July, Wednesday

Time Temperature Precipitation Wind Pressure Humidity
00:00 +27°C° 0.1 mm 2 mps 738 mmHg 50%
01:00 +26°C° 0.1 mm 2 mps 738 mmHg 55%
02:00 +26°C° 0.1 mm 2 mps 739 mmHg 60%
03:00 +25°C° 0.1 mm 2 mps 739 mmHg 66%
04:00 +25°C° 0.2 mm 2 mps 739 mmHg 66%
05:00 +25°C° 0.2 mm 2 mps 739 mmHg 67%
06:00 +25°C° 0.2 mm 2 mps 739 mmHg 67%
07:00 +26°C° 0.2 mm 2 mps 739 mmHg 64%
08:00 +27°C° 0.2 mm 2 mps 739 mmHg 60%
09:00 +29°C° 0.2 mm 1 mps 739 mmHg 56%
10:00 +29°C° 0 mm 2 mps 740 mmHg 55%
11:00 +30°C° 0 mm 3 mps 740 mmHg 53%
12:00 +32°C° 0 mm 4 mps 740 mmHg 52%
13:00 +30°C° 0.1 mm 4 mps 741 mmHg 55%
14:00 +30°C° 0.1 mm 5 mps 741 mmHg 59%
15:00 +29°C° 0.1 mm 5 mps 741 mmHg 62%
16:00 +28°C° 0.5 mm 6 mps 741 mmHg 66%
17:00 +27°C° 0.5 mm 6 mps 742 mmHg 70%
18:00 +24°C° 0.5 mm 6 mps 742 mmHg 75%
19:00 +23°C° 0.1 mm 6 mps 743 mmHg 77%
20:00 +21°C° 0.1 mm 6 mps 743 mmHg 79%
21:00 +20°C° 0.1 mm 6 mps 743 mmHg 81%
22:00 +19°C° 0 mm 6 mps 744 mmHg 81%
23:00 +19°C° 0 mm 6 mps 744 mmHg 81%

9 July, Thursday

Time Temperature Precipitation Wind Pressure Humidity
00:00 +17°C° 0 mm 6 mps 744 mmHg 80%
01:00 +16°C° 0 mm 6 mps 744 mmHg 83%
02:00 +16°C° 0 mm 5 mps 745 mmHg 85%
03:00 +15°C° 0 mm 5 mps 745 mmHg 87%
04:00 +15°C° 0 mm 5 mps 745 mmHg 85%
05:00 +15°C° 0 mm 5 mps 745 mmHg 83%
06:00 +16°C° 0 mm 6 mps 746 mmHg 81%
07:00 +17°C° 0 mm 6 mps 746 mmHg 76%
08:00 +19°C° 0 mm 6 mps 746 mmHg 70%
09:00 +20°C° 0 mm 6 mps 747 mmHg 65%
10:00 +22°C° 0 mm 6 mps 747 mmHg 59%
11:00 +23°C° 0 mm 6 mps 747 mmHg 54%
12:00 +26°C° 0 mm 6 mps 748 mmHg 49%
13:00 +26°C° 0 mm 6 mps 748 mmHg 46%
14:00 +26°C° 0 mm 6 mps 748 mmHg 43%
15:00 +27°C° 0 mm 6 mps 748 mmHg 41%
16:00 +27°C° 0 mm 6 mps 748 mmHg 42%
17:00 +26°C° 0 mm 6 mps 748 mmHg 43%
18:00 +26°C° 0 mm 5 mps 748 mmHg 44%
19:00 +23°C° 0 mm 4 mps 748 mmHg 51%
20:00 +22°C° 0 mm 4 mps 749 mmHg 57%
21:00 +20°C° 0 mm 3 mps 749 mmHg 63%
22:00 +20°C° 0 mm 3 mps 749 mmHg 66%
23:00 +19°C° 0 mm 3 mps 750 mmHg 68%

10 July, Friday

Time Temperature Precipitation Wind Pressure Humidity
00:00 +19°C° 0 mm 3 mps 750 mmHg 71%
01:00 +18°C° 0 mm 3 mps 750 mmHg 75%
02:00 +17°C° 0 mm 3 mps 750 mmHg 79%
03:00 +17°C° 0 mm 2 mps 750 mmHg 82%
04:00 +17°C° 0 mm 2 mps 751 mmHg 83%
05:00 +17°C° 0 mm 2 mps 751 mmHg 83%
06:00 +17°C° 0 mm 2 mps 751 mmHg 84%
07:00 +19°C° 0 mm 2 mps 751 mmHg 75%
08:00 +20°C° 0 mm 3 mps 751 mmHg 66%
09:00 +22°C° 0 mm 3 mps 752 mmHg 58%
10:00 +24°C° 0 mm 3 mps 752 mmHg 52%
11:00 +25°C° 0 mm 3 mps 752 mmHg 46%
12:00 +26°C° 0 mm 3 mps 752 mmHg 40%
13:00 +27°C° 0 mm 3 mps 751 mmHg 38%
14:00 +27°C° 0 mm 3 mps 751 mmHg 36%
15:00 +28°C° 0 mm 3 mps 751 mmHg 34%
16:00 +28°C° 0 mm 4 mps 751 mmHg 35%
17:00 +27°C° 0 mm 4 mps 751 mmHg 37%
18:00 +27°C° 0 mm 4 mps 751 mmHg 39%
19:00 +25°C° 0 mm 4 mps 751 mmHg 43%
20:00 +23°C° 0 mm 4 mps 751 mmHg 48%
21:00 +21°C° 0 mm 3 mps 751 mmHg 52%
22:00 +20°C° 0 mm 3 mps 751 mmHg 55%
23:00 +20°C° 0 mm 3 mps 751 mmHg 58%

11 July, Saturday

Time Temperature Precipitation Wind Pressure Humidity
00:00 +19°C° 0 mm 3 mps 751 mmHg 61%
01:00 +18°C° 0 mm 3 mps 751 mmHg 64%
02:00 +18°C° 0 mm 3 mps 751 mmHg 66%
03:00 +18°C° 0 mm 3 mps 751 mmHg 68%
04:00 +18°C° 0 mm 3 mps 751 mmHg 70%
05:00 +18°C° 0 mm 3 mps 751 mmHg 71%
06:00 +18°C° 0 mm 3 mps 751 mmHg 72%
07:00 +20°C° 0 mm 4 mps 751 mmHg 66%
08:00 +21°C° 0 mm 4 mps 751 mmHg 61%
09:00 +23°C° 0 mm 5 mps 751 mmHg 55%
10:00 +26°C° 0 mm 4 mps 751 mmHg 49%
11:00 +27°C° 0 mm 4 mps 751 mmHg 43%
12:00 +28°C° 0 mm 4 mps 751 mmHg 37%
13:00 +29°C° 0 mm 4 mps 751 mmHg 35%
14:00 +29°C° 0 mm 4 mps 750 mmHg 33%
15:00 +30°C° 0 mm 4 mps 750 mmHg 31%
16:00 +30°C° 0 mm 4 mps 750 mmHg 33%
17:00 +29°C° 0 mm 4 mps 750 mmHg 35%
18:00 +29°C° 0 mm 4 mps 749 mmHg 37%
19:00 +27°C° 0 mm 4 mps 749 mmHg 41%
20:00 +25°C° 0 mm 3 mps 749 mmHg 45%
21:00 +24°C° 0 mm 3 mps 749 mmHg 49%
22:00 +22°C° 0 mm 3 mps 749 mmHg 52%
23:00 +21°C° 0 mm 3 mps 749 mmHg 54%
Show more